New Orleans Lakefront, LA

12:15 PM CDT on July 28, 2017 (GMT -0500)
Lakefront

Weather History for KNEW - April, 2013

Change the Weather History Date:

Tuesday, April 9, 2013

  Actual Average Record
Temperature  
Mean Temperature 77 °F 67 °F  
Max Temperature 81 °F 77 °F 86 °F (1999)
Min Temperature 72 °F 58 °F 36 °F (1971)
Degree Days  
Heating Degree Days 0 2  
Month to date heating degree days 22 18  
Since 1 July heating degree days 1120 1263  
Cooling Degree Days 12 4  
Month to date cooling degree days 24 33  
Year to date cooling degree days 92 133  
Growing Degree Days 28 (Base 50)    
Moisture  
Dew Point 69 °F    
Average Humidity 82    
Maximum Humidity 90    
Minimum Humidity 74    
Precipitation  
Precipitation T in 0.15 in 1.96 in (1956)
Month to date precipitation 1.94 1.34  
Year to date precipitation 16.82 16.34  
Snow  
Snow 0.00 in - - ()
Month to date snowfall 0.0  
Since 1 July snowfall 0.0  
Snow Depth 0.00 in    
Sea Level Pressure  
Sea Level Pressure 29.97 in    
Wind  
Wind Speed 15 mph (SE)    
Max Wind Speed 23 mph    
Max Gust Speed 29 mph    
Visibility 9 miles    
Events      
T = Trace of Precipitation, MM = Missing Value Source: NWS Daily Summary

Daily Weather History Graph

Daily Weather History Graph

Search for Another Location

Airport or City:

Trip Planner

Search our weather history database for the weather conditions in past years. The results will help you decide how hot, cold, wet, or windy it might be!

Date:

Astronomy

Apr. 09, 2013 Rise Set
Actual Time 6:39 AM CDT 7:23 PM CDT
Civil Twilight 6:15 AM CDT 7:48 PM CDT
Nautical Twilight 5:46 AM CDT 8:16 PM CDT
Astronomical Twilight 5:17 AM CDT 8:46 PM CDT
Moon 6:00 AM CDT (4/9) 6:59 PM CDT (4/9)
Length of Visible Light 13h 32m
Length of Day
12h 44m
Waning Crescent, 1% of the Moon is Illuminated
Apr 9
Waning Crescent
Apr 10
New
Apr 18
First Quarter
Apr 25
Full
May 2
Last Quarter

Hourly Weather History & Observations

Time (CDT) Temp. Heat Index Dew Point Humidity Pressure Visibility Wind Dir Wind Speed Gust Speed Precip Events Conditions
12:53 AM 75.9 °F - 68.0 °F 76% 29.94 in 10.0 mi SE 10.4 mph - N/A   Overcast
1:53 AM 75.9 °F - 68.0 °F 76% 29.93 in 9.0 mi SE 16.1 mph 27.6 mph N/A   Overcast
2:28 AM 75.2 °F - 68.0 °F 78% 29.93 in 9.0 mi SE 12.7 mph - N/A   Mostly Cloudy
2:53 AM 75.0 °F - 68.0 °F 79% 29.91 in 9.0 mi SE 13.8 mph - N/A   Overcast
3:45 AM 75.2 °F - 68.0 °F 78% 29.93 in 9.0 mi SSE 15.0 mph 23.0 mph N/A   Overcast
3:53 AM 75.9 °F - 68.0 °F 76% 29.91 in 9.0 mi SE 17.3 mph 24.2 mph N/A   Overcast
4:53 AM 75.9 °F - 68.0 °F 76% 29.92 in 9.0 mi SE 15.0 mph - N/A   Overcast
5:53 AM 75.9 °F - 68.0 °F 76% 29.94 in 9.0 mi SE 10.4 mph - N/A   Overcast
6:03 AM 75.2 °F - 68.0 °F 78% 29.95 in 9.0 mi SSE 16.1 mph - N/A   Overcast
6:53 AM 75.9 °F - 68.0 °F 76% 29.95 in 8.0 mi SSE 16.1 mph - N/A   Overcast
7:53 AM 75.9 °F - 69.1 °F 79% 29.97 in 7.0 mi SE 12.7 mph - N/A   Overcast
8:53 AM 77.0 °F - 69.1 °F 76% 29.99 in 8.0 mi SE 18.4 mph - N/A   Overcast
9:53 AM 78.1 °F - 69.1 °F 74% 29.99 in 8.0 mi SE 16.1 mph - N/A   Overcast
10:40 AM - - - N/A% 30.02 in 9.0 mi SSE 13.8 mph 21.9 mph N/A   Overcast
10:53 AM 75.9 °F - - N/A% 30.01 in 10.0 mi SSE 12.7 mph - N/A   Overcast
11:53 AM 79.0 °F - 71.1 °F 77% 30.01 in 10.0 mi SSE 13.8 mph - N/A   Overcast
12:53 PM 81.0 °F 84.9 °F 71.1 °F 72% 30.00 in 10.0 mi SE 17.3 mph 25.3 mph N/A   Overcast
1:53 PM 82.0 °F 85.9 °F 70.0 °F 67% 29.98 in 10.0 mi SE 16.1 mph - N/A   Overcast
1:56 PM 82.4 °F 87.2 °F 71.6 °F 70% 30.00 in 10.0 mi SE 19.6 mph 24.2 mph N/A   Mostly Cloudy
2:53 PM 82.0 °F 85.9 °F 70.0 °F 67% 29.96 in 10.0 mi SE 20.7 mph 28.8 mph N/A   Scattered Clouds
3:42 PM 82.4 °F 86.3 °F 69.8 °F 66% 29.98 in 10.0 mi SE 13.8 mph - N/A   Overcast
3:53 PM 82.0 °F 85.9 °F 70.0 °F 67% 29.96 in 10.0 mi SE 20.7 mph 26.5 mph N/A   Overcast
4:53 PM 81.0 °F 84.4 °F 70.0 °F 69% 29.96 in 10.0 mi ESE 17.3 mph - N/A   Overcast
5:53 PM 79.0 °F - 70.0 °F 74% 29.97 in 10.0 mi SE 15.0 mph - N/A   Overcast
6:53 PM 75.9 °F - 70.0 °F 82% 29.98 in 8.0 mi SE 15.0 mph - 0.00 in   Overcast
7:53 PM 75.9 °F - 70.0 °F 82% 29.99 in 9.0 mi SE 12.7 mph 21.9 mph N/A   Overcast
8:00 PM 75.2 °F - 69.8 °F 83% 30.01 in 9.0 mi SE 16.1 mph 21.9 mph N/A   Overcast
8:13 PM 75.2 °F - 69.8 °F 83% 30.00 in 9.0 mi ESE 16.1 mph - N/A   Overcast
8:53 PM 75.0 °F - 70.0 °F 84% 29.99 in 9.0 mi ESE 13.8 mph 20.7 mph N/A   Overcast
9:07 PM 75.2 °F - 69.8 °F 83% 30.00 in 9.0 mi ESE 18.4 mph 25.3 mph N/A   Overcast
9:19 PM 75.2 °F - 69.8 °F 83% 30.01 in 9.0 mi ESE 18.4 mph 24.2 mph N/A   Overcast
9:38 PM 75.2 °F - 69.8 °F 83% 30.00 in 9.0 mi ESE 15.0 mph - N/A   Overcast
9:53 PM 75.0 °F - 69.1 °F 82% 29.98 in 10.0 mi ESE 17.3 mph - N/A   Overcast
10:53 PM 75.0 °F - 69.1 °F 82% 29.99 in 10.0 mi SE 20.7 mph 27.6 mph N/A   Overcast
11:53 PM 75.0 °F - 69.1 °F 82% 29.97 in 10.0 mi SE 13.8 mph - N/A   Overcast